Location: Apalco
(33.3585°N, 93.4602°W)
Time: 15:41:53
(UTC+00:00)

Envisat - Pass Details

Date: 29 September 2021
Orbit: 764 x 766 km, 98.2° (Epoch: 19 October)

Event Time Altitude Azimuth Distance (km) Brightness Sun altitude
Rises 09:53:55 0° 41° (NE) 3,231 7.1 -28.3°
Reaches altitude 10° 09:58:37 10° 81° (E) 2,298 6.4 -27.3°
Maximum altitude 09:59:32 10° 91° (E) 2,266 6.3 -27.2°
Drops below altitude 10° 10:00:27 10° 102° (ESE) 2,296 6.2 -27.0°
Sets 10:05:05 0° 141° (SE) 3,215 6.5 -26.0°
